Time,TemperatureF,DewpointF,PressureIn,WindDirection,WindDirectionDegrees,WindSpeedMPH,WindSpeedGustMPH,Humidity,HourlyPrecipIn,Conditions,Clouds,dailyrainin,SoftwareType,DateUTC
2013-03-22 00:03:00,25.0,18.0,30.02,WNW,295,1.0,12.0,73,0.00,,,0.00,,2013-03-22 04:03:00,
2013-03-22 00:12:00,25.0,18.0,30.02,WNW,295,1.0,12.0,73,0.00,,,0.00,,2013-03-22 04:12:00,
2013-03-22 00:23:00,24.0,18.0,30.02,WNW,294,2.0,12.0,77,0.00,,,0.00,,2013-03-22 04:23:00,
2013-03-22 00:32:00,23.0,18.0,30.03,WNW,294,2.0,12.0,80,0.00,,,0.00,,2013-03-22 04:32:00,
2013-03-22 00:43:00,23.0,18.0,30.03,WNW,294,2.0,12.0,80,0.00,,,0.00,,2013-03-22 04:43:00,
2013-03-22 00:52:00,23.0,18.0,30.03,NW,304,4.0,12.0,80,0.00,,,0.00,,2013-03-22 04:52:00,
2013-03-22 01:02:00,22.0,17.0,30.03,NW,306,3.0,12.0,81,0.00,,,0.00,,2013-03-22 05:02:00,
2013-03-22 01:12:00,22.0,17.0,30.03,NW,306,3.0,12.0,81,0.00,,,0.00,,2013-03-22 05:12:00,
2013-03-22 01:22:00,22.0,17.0,30.03,NW,305,4.0,12.0,82,0.00,,,0.00,,2013-03-22 05:22:00,
2013-03-22 01:32:00,23.0,18.0,30.03,NW,306,2.0,12.0,81,0.00,,,0.00,,2013-03-22 05:32:00,
2013-03-22 01:42:00,23.0,18.0,30.03,NW,306,2.0,12.0,81,0.00,,,0.00,,2013-03-22 05:42:00,
2013-03-22 01:52:00,23.0,18.0,30.03,NW,311,3.0,12.0,80,0.00,,,0.00,,2013-03-22 05:52:00,
2013-03-22 02:02:00,22.0,17.0,30.03,NW,311,1.0,12.0,81,0.00,,,0.00,,2013-03-22 06:02:00,
2013-03-22 02:13:00,22.0,17.0,30.03,NW,311,1.0,12.0,81,0.00,,,0.00,,2013-03-22 06:13:00,
2013-03-22 02:22:00,21.0,16.0,30.03,NW,311,2.0,12.0,82,0.00,,,0.00,,2013-03-22 06:22:00,
2013-03-22 02:32:00,21.0,17.0,30.03,NW,311,2.0,7.0,84,0.00,,,0.00,,2013-03-22 06:32:00,
2013-03-22 02:42:00,21.0,17.0,30.03,NW,311,2.0,7.0,84,0.00,,,0.00,,2013-03-22 06:42:00,
2013-03-22 02:52:00,21.0,17.0,30.04,NW,309,2.0,7.0,83,0.00,,,0.00,,2013-03-22 06:52:00,
2013-03-22 03:03:00,21.0,17.0,30.04,NW,309,1.0,7.0,83,0.00,,,0.00,,2013-03-22 07:03:00,
2013-03-22 03:12:00,21.0,17.0,30.04,NW,309,1.0,7.0,83,0.00,,,0.00,,2013-03-22 07:12:00,
2013-03-22 03:22:00,21.0,17.0,30.04,NW,309,2.0,7.0,83,0.00,,,0.00,,2013-03-22 07:22:00,
2013-03-22 03:32:00,21.0,16.0,30.04,NW,309,2.0,7.0,82,0.00,,,0.00,,2013-03-22 07:32:00,
2013-03-22 03:42:00,21.0,16.0,30.04,NW,309,2.0,7.0,82,0.00,,,0.00,,2013-03-22 07:42:00,
2013-03-22 03:52:00,21.0,16.0,30.04,NW,309,0.0,7.0,82,0.00,,,0.00,,2013-03-22 07:52:00,
2013-03-22 04:03:00,21.0,16.0,30.04,NW,308,3.0,7.0,82,0.00,,,0.00,,2013-03-22 08:03:00,
2013-03-22 04:13:00,21.0,16.0,30.04,NW,308,3.0,7.0,82,0.00,,,0.00,,2013-03-22 08:13:00,
2013-03-22 04:22:00,21.0,16.0,30.04,WNW,291,5.0,7.0,82,0.00,,,0.00,,2013-03-22 08:22:00,
2013-03-22 04:32:00,21.0,17.0,30.04,WNW,288,6.0,7.0,83,0.00,,,0.00,,2013-03-22 08:32:00,
2013-03-22 04:42:00,21.0,17.0,30.04,WNW,288,6.0,7.0,83,0.00,,,0.00,,2013-03-22 08:42:00,
2013-03-22 04:52:00,21.0,17.0,30.03,WSW,258,5.0,7.0,83,0.00,,,0.00,,2013-03-22 08:52:00,
2013-03-22 05:02:00,21.0,17.0,30.03,West,261,2.0,7.0,83,0.00,,,0.00,,2013-03-22 09:02:00,
2013-03-22 05:12:00,21.0,17.0,30.03,West,261,2.0,7.0,83,0.00,,,0.00,,2013-03-22 09:12:00,
2013-03-22 05:22:00,21.0,17.0,30.03,West,265,2.0,7.0,83,0.00,,,0.00,,2013-03-22 09:22:00,
2013-03-22 05:32:00,21.0,17.0,30.04,WSW,256,5.0,7.0,83,0.00,,,0.00,,2013-03-22 09:32:00,
2013-03-22 05:42:00,21.0,17.0,30.04,WSW,256,5.0,7.0,83,0.00,,,0.00,,2013-03-22 09:42:00,
2013-03-22 05:53:00,21.0,17.0,30.03,WSW,256,5.0,7.0,84,0.00,,,0.00,,2013-03-22 09:53:00,
2013-03-22 06:04:00,21.0,17.0,30.04,West,265,8.0,8.0,84,0.00,,,0.00,,2013-03-22 10:04:00,
2013-03-22 06:12:00,21.0,17.0,30.04,West,265,8.0,8.0,84,0.00,,,0.00,,2013-03-22 10:12:00,
2013-03-22 06:22:00,21.0,17.0,30.04,West,264,3.0,7.0,83,0.00,,,0.00,,2013-03-22 10:22:00,
2013-03-22 06:33:00,21.0,17.0,30.04,West,265,2.0,7.0,83,0.00,,,0.00,,2013-03-22 10:33:00,
2013-03-22 06:42:00,21.0,17.0,30.04,West,265,2.0,7.0,83,0.00,,,0.00,,2013-03-22 10:42:00,
2013-03-22 06:52:00,21.0,17.0,30.04,West,263,3.0,7.0,83,0.00,,,0.00,,2013-03-22 10:52:00,
2013-03-22 07:03:00,21.0,17.0,30.05,WSW,256,6.0,7.0,84,0.00,,,0.00,,2013-03-22 11:03:00,
2013-03-22 07:12:00,21.0,17.0,30.05,WSW,256,6.0,7.0,84,0.00,,,0.00,,2013-03-22 11:12:00,
2013-03-22 07:22:00,20.0,16.0,30.05,WSW,258,2.0,7.0,84,0.00,,,0.00,,2013-03-22 11:22:00,
2013-03-22 07:33:00,20.0,16.0,30.05,West,260,0.0,7.0,84,0.00,,,0.00,,2013-03-22 11:33:00,
2013-03-22 07:42:00,20.0,16.0,30.05,West,260,0.0,7.0,84,0.00,,,0.00,,2013-03-22 11:42:00,
2013-03-22 07:52:00,20.0,16.0,30.06,WSW,256,5.0,7.0,84,0.00,,,0.00,,2013-03-22 11:52:00,
2013-03-22 08:02:00,20.0,16.0,30.06,WSW,256,4.0,7.0,84,0.00,,,0.00,,2013-03-22 12:02:00,
2013-03-22 08:12:00,21.0,17.0,30.06,WSW,256,3.0,7.0,85,0.00,,,0.00,,2013-03-22 12:12:00,
2013-03-22 08:22:00,21.0,17.0,30.06,WSW,256,3.0,7.0,85,0.00,,,0.00,,2013-03-22 12:22:00,
2013-03-22 08:32:00,21.0,17.0,30.06,WSW,254,6.0,7.0,84,0.00,,,0.00,,2013-03-22 12:32:00,
2013-03-22 08:42:00,21.0,17.0,30.06,WSW,254,6.0,7.0,84,0.00,,,0.00,,2013-03-22 12:42:00,
2013-03-22 08:52:00,22.0,18.0,30.06,WSW,250,5.0,7.0,83,0.00,,,0.00,,2013-03-22 12:52:00,
2013-03-22 09:02:00,23.0,18.0,30.06,WSW,258,3.0,7.0,82,0.00,,,0.00,,2013-03-22 13:02:00,
2013-03-22 09:12:00,23.0,18.0,30.06,WSW,258,3.0,7.0,82,0.00,,,0.00,,2013-03-22 13:12:00,
2013-03-22 09:22:00,24.0,19.0,30.07,West,272,5.0,7.0,82,0.00,,,0.00,,2013-03-22 13:22:00,
2013-03-22 09:32:00,25.0,20.0,30.06,WNW,291,3.0,7.0,80,0.00,,,0.00,,2013-03-22 13:32:00,
2013-03-22 09:42:00,25.0,20.0,30.06,WNW,291,3.0,7.0,80,0.00,,,0.00,,2013-03-22 13:42:00,
2013-03-22 09:52:00,26.0,20.0,30.06,WNW,284,5.0,7.0,79,0.00,,,0.00,,2013-03-22 13:52:00,
2013-03-22 10:02:00,27.0,21.0,30.06,WNW,292,3.0,7.0,78,0.00,,,0.00,,2013-03-22 14:02:00,
2013-03-22 10:12:00,27.0,21.0,30.06,WNW,292,3.0,7.0,78,0.00,,,0.00,,2013-03-22 14:12:00,
2013-03-22 10:22:00,27.0,21.0,30.06,WNW,298,5.0,7.0,77,0.00,,,0.00,,2013-03-22 14:22:00,
2013-03-22 10:32:00,28.0,21.0,30.06,NW,308,6.0,7.0,75,0.00,,,0.00,,2013-03-22 14:32:00,
2013-03-22 10:42:00,28.0,21.0,30.06,NW,308,6.0,7.0,75,0.00,,,0.00,,2013-03-22 14:42:00,
2013-03-22 10:52:00,29.0,20.0,30.06,NW,305,7.0,7.0,70,0.00,,,0.00,,2013-03-22 14:52:00,
2013-03-22 11:03:00,29.0,19.0,30.06,NW,312,5.0,7.0,67,0.00,,,0.00,,2013-03-22 15:03:00,
2013-03-22 11:12:00,29.0,19.0,30.06,NW,312,5.0,7.0,67,0.00,,,0.00,,2013-03-22 15:12:00,
2013-03-22 11:22:00,30.0,20.0,30.05,WNW,287,6.0,7.0,66,0.00,,,0.00,,2013-03-22 15:22:00,
2013-03-22 11:33:00,31.0,20.0,30.05,WNW,292,2.0,7.0,63,0.00,,,0.00,,2013-03-22 15:33:00,
2013-03-22 11:42:00,31.0,20.0,30.05,WNW,292,2.0,7.0,63,0.00,,,0.00,,2013-03-22 15:42:00,
2013-03-22 11:53:00,31.0,19.0,30.05,West,271,3.0,7.0,60,0.00,,,0.00,,2013-03-22 15:53:00,
2013-03-22 12:03:00,32.0,18.0,30.05,WNW,295,6.0,7.0,56,0.00,,,0.00,,2013-03-22 16:03:00,
2013-03-22 12:13:00,32.0,18.0,30.05,WSW,240,10.0,10.0,56,0.00,,,0.00,,2013-03-22 16:13:00,
2013-03-22 12:23:00,32.0,18.0,30.05,WSW,240,10.0,10.0,56,0.00,,,0.00,,2013-03-22 16:23:00,
2013-03-22 12:32:00,33.0,19.0,30.05,WNW,282,6.0,7.0,55,0.00,,,0.00,,2013-03-22 16:32:00,
2013-03-22 12:42:00,33.0,19.0,30.05,WSW,244,9.0,9.0,56,0.00,,,0.00,,2013-03-22 16:42:00,
2013-03-22 12:52:00,33.0,19.0,30.05,WSW,244,9.0,9.0,56,0.00,,,0.00,,2013-03-22 16:52:00,
2013-03-22 13:03:00,34.0,18.0,30.06,WNW,296,10.0,10.0,51,0.00,,,0.00,,2013-03-22 17:03:00,
2013-03-22 13:12:00,34.0,18.0,30.05,NW,304,11.0,11.0,52,0.00,,,0.00,,2013-03-22 17:12:00,
2013-03-22 13:23:00,34.0,18.0,30.05,NW,304,11.0,11.0,52,0.00,,,0.00,,2013-03-22 17:23:00,
2013-03-22 13:32:00,35.0,19.0,30.05,WNW,287,10.0,10.0,51,0.00,,,0.00,,2013-03-22 17:32:00,
2013-03-22 13:42:00,35.0,19.0,30.05,WNW,287,10.0,10.0,51,0.00,,,0.00,,2013-03-22 17:42:00,
2013-03-22 13:52:00,35.0,19.0,30.05,West,261,17.0,17.0,52,0.00,,,0.00,,2013-03-22 17:52:00,
2013-03-22 14:02:00,36.0,20.0,30.05,WNW,291,11.0,11.0,51,0.00,,,0.00,,2013-03-22 18:02:00,
2013-03-22 14:12:00,36.0,20.0,30.05,WNW,291,11.0,11.0,51,0.00,,,0.00,,2013-03-22 18:12:00,
2013-03-22 14:22:00,36.0,19.0,30.04,West,263,10.0,10.0,49,0.00,,,0.00,,2013-03-22 18:22:00,
2013-03-22 14:33:00,37.0,19.0,30.04,West,261,10.0,10.0,48,0.00,,,0.00,,2013-03-22 18:33:00,
2013-03-22 14:42:00,37.0,19.0,30.04,West,261,10.0,10.0,48,0.00,,,0.00,,2013-03-22 18:42:00,
2013-03-22 14:52:00,37.0,19.0,30.03,WNW,298,6.0,7.0,47,0.00,,,0.00,,2013-03-22 18:52:00,
2013-03-22 15:02:00,37.0,19.0,30.03,West,272,8.0,8.0,47,0.00,,,0.00,,2013-03-22 19:02:00,
2013-03-22 15:12:00,37.0,17.0,30.03,WNW,295,8.0,8.0,44,0.00,,,0.00,,2013-03-22 19:12:00,
2013-03-22 15:22:00,37.0,17.0,30.03,WNW,295,8.0,8.0,44,0.00,,,0.00,,2013-03-22 19:22:00,
2013-03-22 15:32:00,38.0,19.0,30.02,WNW,296,5.0,7.0,46,0.00,,,0.00,,2013-03-22 19:32:00,
2013-03-22 15:42:00,38.0,19.0,30.02,WNW,296,5.0,7.0,46,0.00,,,0.00,,2013-03-22 19:42:00,
2013-03-22 15:52:00,38.0,19.0,30.02,NW,306,8.0,8.0,45,0.00,,,0.00,,2013-03-22 19:52:00,
2013-03-22 16:02:00,39.0,19.0,30.01,WNW,282,10.0,10.0,44,0.00,,,0.00,,2013-03-22 20:02:00,
2013-03-22 16:12:00,39.0,19.0,30.01,WNW,282,10.0,10.0,44,0.00,,,0.00,,2013-03-22 20:12:00,
2013-03-22 16:22:00,39.0,19.0,30.01,WNW,289,7.0,7.0,44,0.00,,,0.00,,2013-03-22 20:22:00,
2013-03-22 16:32:00,39.0,18.0,30.01,NW,322,5.0,7.0,43,0.00,,,0.00,,2013-03-22 20:32:00,
2013-03-22 16:43:00,39.0,18.0,30.01,NW,322,5.0,7.0,43,0.00,,,0.00,,2013-03-22 20:43:00,
2013-03-22 16:52:00,40.0,18.0,30.00,West,281,7.0,7.0,41,0.00,,,0.00,,2013-03-22 20:52:00,
2013-03-22 17:03:00,40.0,18.0,30.00,NW,308,8.0,8.0,40,0.00,,,0.00,,2013-03-22 21:03:00,
2013-03-22 17:12:00,40.0,19.0,30.00,WNW,292,12.0,12.0,42,0.00,,,0.00,,2013-03-22 21:12:00,
2013-03-22 17:22:00,40.0,19.0,30.00,WNW,292,12.0,12.0,42,0.00,,,0.00,,2013-03-22 21:22:00,
2013-03-22 17:33:00,41.0,20.0,30.00,West,280,3.0,7.0,42,0.00,,,0.00,,2013-03-22 21:33:00,
2013-03-22 17:43:00,41.0,20.0,30.00,West,280,3.0,7.0,42,0.00,,,0.00,,2013-03-22 21:43:00,
2013-03-22 17:53:00,41.0,19.0,30.00,WSW,239,10.0,10.0,41,0.00,,,0.00,,2013-03-22 21:53:00,
2013-03-22 18:03:00,41.0,20.0,30.00,West,274,3.0,7.0,42,0.00,,,0.00,,2013-03-22 22:03:00,
2013-03-22 18:12:00,41.0,20.0,30.00,West,274,3.0,7.0,42,0.00,,,0.00,,2013-03-22 22:12:00,
2013-03-22 18:23:00,40.0,19.0,30.00,WNW,287,7.0,7.0,43,0.00,,,0.00,,2013-03-22 22:23:00,
2013-03-22 18:32:00,41.0,20.0,30.00,NW,319,12.0,12.0,42,0.00,,,0.00,,2013-03-22 22:32:00,
2013-03-22 18:42:00,41.0,20.0,30.00,NW,319,12.0,12.0,42,0.00,,,0.00,,2013-03-22 22:42:00,
2013-03-22 18:53:00,40.0,18.0,30.00,WNW,292,7.0,7.0,41,0.00,,,0.00,,2013-03-22 22:53:00,
2013-03-22 19:02:00,40.0,19.0,30.01,West,268,5.0,7.0,42,0.00,,,0.00,,2013-03-22 23:02:00,
2013-03-22 19:12:00,40.0,19.0,30.01,West,268,5.0,7.0,42,0.00,,,0.00,,2013-03-22 23:12:00,
2013-03-22 19:22:00,40.0,19.0,30.01,WNW,285,2.0,7.0,43,0.00,,,0.00,,2013-03-22 23:22:00,
2013-03-22 19:32:00,40.0,19.0,30.01,West,263,4.0,7.0,43,0.00,,,0.00,,2013-03-22 23:32:00,
2013-03-22 19:42:00,40.0,19.0,30.01,West,263,4.0,7.0,43,0.00,,,0.00,,2013-03-22 23:42:00,
2013-03-22 19:52:00,40.0,20.0,30.02,West,281,6.0,7.0,44,0.00,,,0.00,,2013-03-22 23:52:00,
2013-03-22 20:02:00,38.0,20.0,30.02,West,274,4.0,7.0,47,0.00,,,0.00,,2013-03-23 00:02:00,
2013-03-22 20:12:00,38.0,20.0,30.02,West,274,4.0,7.0,47,0.00,,,0.00,,2013-03-23 00:12:00,
2013-03-22 20:23:00,38.0,21.0,30.03,West,274,5.0,7.0,49,0.00,,,0.00,,2013-03-23 00:23:00,
2013-03-22 20:33:00,36.0,21.0,30.03,West,275,3.0,7.0,53,0.00,,,0.00,,2013-03-23 00:33:00,
2013-03-22 20:42:00,36.0,21.0,30.03,West,275,1.0,7.0,54,0.00,,,0.00,,2013-03-23 00:42:00,
2013-03-22 20:52:00,36.0,21.0,30.03,West,275,1.0,7.0,54,0.00,,,0.00,,2013-03-23 00:52:00,
2013-03-22 21:03:00,36.0,21.0,30.03,West,274,3.0,7.0,54,0.00,,,0.00,,2013-03-23 01:03:00,
2013-03-22 21:12:00,36.0,21.0,30.03,West,274,3.0,7.0,54,0.00,,,0.00,,2013-03-23 01:12:00,
2013-03-22 21:22:00,35.0,20.0,30.03,West,275,4.0,7.0,55,0.00,,,0.00,,2013-03-23 01:22:00,
2013-03-22 21:32:00,35.0,20.0,30.04,West,264,5.0,7.0,55,0.00,,,0.00,,2013-03-23 01:32:00,
2013-03-22 21:42:00,35.0,20.0,30.04,West,264,5.0,7.0,55,0.00,,,0.00,,2013-03-23 01:42:00,
2013-03-22 21:52:00,34.0,21.0,30.04,West,261,3.0,7.0,58,0.00,,,0.00,,2013-03-23 01:52:00,
2013-03-22 22:02:00,34.0,21.0,30.04,West,261,2.0,7.0,58,0.00,,,0.00,,2013-03-23 02:02:00,
2013-03-22 22:12:00,34.0,21.0,30.04,West,261,2.0,7.0,58,0.00,,,0.00,,2013-03-23 02:12:00,
2013-03-22 22:22:00,34.0,21.0,30.04,West,263,3.0,7.0,58,0.00,,,0.00,,2013-03-23 02:22:00,
2013-03-22 22:32:00,33.0,21.0,30.04,NW,323,0.0,7.0,61,0.00,,,0.00,,2013-03-23 02:32:00,
2013-03-22 22:42:00,33.0,21.0,30.04,NW,323,0.0,7.0,61,0.00,,,0.00,,2013-03-23 02:42:00,
2013-03-22 22:52:00,33.0,20.0,30.04,NW,323,0.0,7.0,58,0.00,,,0.00,,2013-03-23 02:52:00,
2013-03-22 23:02:00,33.0,21.0,30.04,NW,322,1.0,7.0,60,0.00,,,0.00,,2013-03-23 03:02:00,
2013-03-22 23:12:00,33.0,21.0,30.04,NW,322,1.0,7.0,60,0.00,,,0.00,,2013-03-23 03:12:00,
2013-03-22 23:22:00,32.0,20.0,30.04,NW,323,2.0,7.0,61,0.00,,,0.00,,2013-03-23 03:22:00,
2013-03-22 23:33:00,31.0,20.0,30.05,NW,323,2.0,7.0,64,0.00,,,0.00,,2013-03-23 03:33:00,
2013-03-22 23:43:00,31.0,20.0,30.05,NW,323,2.0,7.0,64,0.00,,,0.00,,2013-03-23 03:43:00,
2013-03-22 23:53:00,31.0,20.0,30.05,NW,325,3.0,7.0,64,0.00,,,0.00,,2013-03-23 03:53:00,